Please be sure to check the latest weather conditions by clicking the link and viewing our local weather information!

Check Weather

Welcome to Lakeway Airpark (3R9)

FromTheAir

We’re a community airpark nestled within the town of Lakeway, Texas (17 miles northwest of downtown Austin).

Lakeway Airpark, Inc. was formed by Lakeway residents and interested parties to own and manage Lakeway Airpark (3R9).

The Airpark is a privately owned not for profit public use airport for residents and guests of Lakeway. No public funds are used and the airport is supported by fees and fuel sales at the airport.

Lakeway Airpark is an unmanned facility open for use from Sunrise to Sunset seven days a week. Takeoffs and landings are not permitted at night, between Sunset and Sunrise, by City Ordinance.

Quick Weather Info

Available data for KAUS from the past 2 hours

METAR
KAUS 312253Z 01015KT 10SM FEW120 22/04 A3023 RMK AO2 SLP231 T02170044
KAUS 312153Z 36013KT 10SM FEW120 23/03 A3022 RMK AO2 SLP226 T02330033
TAF
KAUS 312106Z 3121/0124 02014G24KT P6SM FEW250 FM010000 01008KT P6SM SKC FM011600 06006KT P6SM FEW250 FM012200 12008KT P6SM SCT200